This is the latest recevied weather packets stored in our database for station/object K7FLA. If no packets are shown the sender has not sent any weather packets the latest 10 day(s).
| Time | Temp. | Humidity | Pressure | Rain* | Wind** | Luminosity | Snow |
|---|---|---|---|---|---|---|---|
| 1788480673 | 27.22° C | 31% | 1092.8 hPa | 0 mm | - | 180 W/m² | - |
| 1788480369 | 27.22° C | 30% | 1092.8 hPa | 0 mm | - | 195 W/m² | - |
| 1788480065 | 27.78° C | 30% | 1092.8 hPa | 0 mm | - | 215 W/m² | - |
| 1788479764 | 27.78° C | 30% | 1093 hPa | 0 mm | - | 230 W/m² | - |
| 1788479460 | 27.78° C | 30% | 1092.8 hPa | 0 mm | - | 241 W/m² | - |
| 1788479155 | 27.78° C | 29% | 1093 hPa | 0 mm | - | 256 W/m² | - |
| 1788478851 | 28.33° C | 30% | 1093 hPa | 0 mm | - | 269 W/m² | - |
| 1788478547 | 28.33° C | 29% | 1093.1 hPa | 0 mm | - | 283 W/m² | - |
| 1788478242 | 28.89° C | 29% | 1093.2 hPa | 0 mm | - | 296 W/m² | - |
| 1788477937 | 28.89° C | 28% | 1093.1 hPa | 0 mm | - | 314 W/m² | - |
| 1788477633 | 29.44° C | 27% | 1093.2 hPa | 0 mm | - | 329 W/m² | - |
| 1788477327 | 30° C | 26% | 1093.2 hPa | 0 mm | - | 345 W/m² | - |
| 1788477021 | 30° C | 26% | 1093.3 hPa | 0 mm | - | 364 W/m² | - |
| 1788476718 | 30° C | 25% | 1093.4 hPa | 0 mm | - | 378 W/m² | - |
| 1788476416 | 30° C | 24% | 1093.2 hPa | 0 mm | - | 394 W/m² | - |
| 1788476114 | 30° C | 24% | 1093.3 hPa | 0 mm | - | 412 W/m² | - |
| 1788475810 | 30° C | 23% | 1093.2 hPa | 0 mm | - | 426 W/m² | - |
| 1788475506 | 30° C | 24% | 1093.3 hPa | 0 mm | - | 442 W/m² | - |
| 1788475202 | 30° C | 26% | 1093.5 hPa | 0 mm | - | 457 W/m² | - |
| 1788474901 | 30° C | 24% | 1093.5 hPa | 0 mm | - | 476 W/m² | - |
| 1788474600 | 30° C | 23% | 1093.5 hPa | 0 mm | - | 489 W/m² | - |
| 1788474295 | 30° C | 23% | 1093.5 hPa | 0 mm | - | 504 W/m² | - |
| 1788473994 | 30° C | 23% | 1093.6 hPa | 0 mm | - | 519 W/m² | - |
| 1788473689 | 30° C | 22% | 1093.8 hPa | 0 mm | - | 533 W/m² | - |
| 1788473386 | 30.56° C | 23% | 1093.7 hPa | 0 mm | - | 546 W/m² | - |
* Rain latest hour (hover to see other rain measurements)
** Current wind speed in m/s (hover to see current wind gust speed)